sat.trackr.live / text

‹ back to catalog

STARLINK-4594

NORAD 53638 · 2022-104BC

PAYLOAD ACTIVE UNKNOWN

§ Identity

Operator
Country
US
Launch date
2022-08-28
Launch site
AFETR
Launch vehicle
Mass (kg)
RCS (m²)

Purposes: comms

External: N2YO · Heavens-Above · Gunter

§ Orbital elements

Epoch: 2026-09-20T22:05:06.645120Z

Period
93.79 min
Inclination
53.1602°
Eccentricity
0.0001059
Mean motion
15.35403189 rev/d
Perigee alt
459.0 km
Apogee alt
460.4 km
Semi-major
6,837.9 km
B*
4.5786e-5
RAAN
59.6583°
Arg perigee
91.3856°
Mean anomaly
268.7268°
Rev number
22,580

§ Raw data

STARLINK-45941 53638U 22104BC  26263.92021580  .00001217  00000+0  45786-4 0  99942 53638  53.1602  59.6583 0001059  91.3856 268.7268 15.35403189225802

JSON: /api/v1/satellites/53638 · /tle

For live sub-satellite position, see the globe view (requires WebGL).

§ Visibility from observer

Set your observer location to see the next 7 days of passes ≥ 10°. The values pass through the URL so the page stays shareable.

No JS? Fill the form by hand. The geolocation button needs JavaScript.